GW3962 Weather Reports


Display with metric or nautical units.
time (UTC)temp
F
wind
direction
speed
MPH
gust
MPH
rain 1hr
in
rain 24hr
in
rain mn
in
humidity
%
barometer
mb
20260905051542 81 179 5.0 7.0 0.00 0.00 0.00 77 1015.1
20260905051038 81 210 6.0 7.0 0.00 0.00 0.00 77 1015.2
20260905050534 81 212 7.0 9.0 0.00 0.00 0.00 77 1015.1
20260905050031 81 305 4.0 6.0 0.00 0.00 0.00 77 1015.3
20260905045525 81 197 5.0 6.0 0.00 0.00 0.00 76 1015.1
20260905045020 82 190 5.0 7.0 0.00 0.00 0.00 76 1015.3
20260905044514 82 200 6.0 7.0 0.00 0.00 0.00 76 1015.3
20260905044009 82 202 8.0 9.0 0.00 0.00 0.00 75 1014.9
20260905043508 82 198 5.0 6.0 0.00 0.00 0.00 75 1015.2
20260905043003 82 183 6.0 7.0 0.00 0.00 0.00 75 1014.9
20260905042502 82 202 5.0 7.0 0.00 0.00 0.00 74 1015.0
20260905041957 82 156 5.0 6.0 0.00 0.00 0.00 74 1015.1
20260905041453 82 203 7.0 9.0 0.00 0.00 0.00 73 1015.1
20260905040948 82 176 8.0 9.0 0.00 0.00 0.00 73 1015.0
20260905040447 82 166 7.0 8.0 0.00 0.00 0.00 73 1014.8
20260905035947 83 167 5.0 6.0 0.00 0.00 0.00 72 1015.1
20260905035442 83 179 4.0 6.0 0.00 0.00 0.00 71 1015.1
20260905034939 83 175 6.0 8.0 0.00 0.00 0.00 71 1014.9
20260905034434 83 177 6.0 8.0 0.00 0.00 0.00 71 1015.1
20260905033933 83 142 7.0 9.0 0.00 0.00 0.00 71 1015.2
20260905033428 83 160 4.0 6.0 0.00 0.00 0.00 70 1015.0
20260905032928 83 187 4.0 6.0 0.00 0.00 0.00 70 1014.9
20260905032424 83 194 5.0 6.0 0.00 0.00 0.00 70 1015.0
20260905031918 83 202 5.0 6.0 0.00 0.00 0.00 70 1014.9
20260905031415 83 152 4.0 7.0 0.00 0.00 0.00 70 1015.0
20260905030910 83 172 6.0 8.0 0.00 0.00 0.00 71 1014.9
20260905030405 83 246 1.0 2.0 0.00 0.00 0.00 71 1014.8
20260905025904 83 143 4.0 5.0 0.00 0.00 0.00 71 1014.9
20260905025400 84 154 3.0 5.0 0.00 0.00 0.00 70 1014.8
20260905024856 84 185 6.0 7.0 0.00 0.00 0.00 70 1014.7
20260905024350 84 195 3.0 3.0 0.00 0.00 0.00 70 1014.5
20260905023846 84 185 5.0 8.0 0.00 0.00 0.00 70 1014.7
20260905023342 84 125 5.0 7.0 0.00 0.00 0.00 70 1014.3
20260905022840 84 131 8.0 10.0 0.00 0.00 0.00 69 1014.4
20260905022335 84 217 5.0 6.0 0.00 0.00 0.00 70 1014.4
20260905021830 84 182 6.0 8.0 0.00 0.00 0.00 70 1014.5
20260905021326 84 167 8.0 9.0 0.00 0.00 0.00 70 1014.2
20260905020826 84 247 3.0 3.0 0.00 0.00 0.00 70 1014.3
20260905020315 84 154 6.0 7.0 0.00 0.00 0.00 69 1014.2
20260905015813 85 187 8.0 9.0 0.00 0.00 0.00 69 1014.1
20260905015308 85 173 9.0 10.0 0.00 0.00 0.00 69 1014.2
20260905014807 85 200 8.0 10.0 0.00 0.00 0.00 68 1014.2
20260905014303 85 219 7.0 8.0 0.00 0.00 0.00 68 1014.0
20260905013753 85 151 6.0 7.0 0.00 0.00 0.00 67 1014.0
20260905013248 85 258 5.0 6.0 0.00 0.00 0.00 66 1013.9
20260905012743 86 168 5.0 6.0 0.00 0.00 0.00 65 1013.8
20260905012239 86 235 4.0 6.0 0.00 0.00 0.00 64 1014.0
20260905011736 86 240 2.0 2.0 0.00 0.00 0.00 64 1013.9
20260905011226 86 191 7.0 9.0 0.00 0.00 0.00 63 1013.8
20260905010725 86 160 6.0 7.0 0.00 0.00 0.00 63 1013.6
20260905010220 86 133 6.0 7.0 0.00 0.00 0.00 63 1013.8
20260905005717 86 163 5.0 7.0 0.00 0.00 0.00 63 1013.8
20260905005213 86 101 7.0 9.0 0.00 0.00 0.00 63 1013.8
20260905004707 86 184 4.0 6.0 0.00 0.00 0.00 64 1013.6
20260905004202 86 162 6.0 8.0 0.00 0.00 0.00 64 1013.6
20260905003657 87 138 3.0 6.0 0.00 0.00 0.00 64 1013.6
20260905003154 87 140 5.0 7.0 0.00 0.00 0.00 63 1013.3
20260905002649 87 177 8.0 8.0 0.00 0.00 0.00 62 1013.1
20260905002148 87 197 6.0 7.0 0.00 0.00 0.00 62 1013.5
20260905001643 87 131 7.0 8.0 0.00 0.00 0.00 64 1013.5
20260905001142 88 152 6.0 9.0 0.00 0.00 0.00 63 1013.3
20260905000638 89 136 9.0 11.0 0.00 0.00 0.00 62 1013.3
20260905000134 89 117 5.0 7.0 0.00 0.00 0.00 59 1013.2
20260904235633 89 126 9.0 15.0 0.00 0.00 0.00 59 1013.0
20260904235133 90 168 8.0 9.0 0.00 0.00 0.00 58 1012.9
20260904234628 91 152 9.0 13.0 0.00 0.00 0.00 57 1013.0
20260904234124 91 324 3.0 3.0 0.00 0.00 0.00 49 1012.9
20260904233619 91 137 5.0 9.0 0.00 0.00 0.00 47 1012.9
20260904233115 91 158 5.0 7.0 0.00 0.00 0.00 45 1012.7
20260904232612 91 166 5.0 7.0 0.00 0.00 0.00 45 1013.0
20260904232108 91 244 4.0 6.0 0.00 0.00 0.00 44 1012.9
20260904231603 91 124 7.0 8.0 0.00 0.00 0.00 42 1013.1
20260904231058 92 208 7.0 8.0 0.00 0.00 0.00 40 1013.1
20260904230557 92 180 7.0 8.0 0.00 0.00 0.00 41 1013.1
20260904230053 91 197 6.0 7.0 0.00 0.00 0.00 42 1013.1
20260904225550 91 210 6.0 8.0 0.00 0.00 0.00 41 1013.2
20260904225046 91 241 3.0 3.0 0.00 0.00 0.00 43 1013.5
20260904224540 91 228 5.0 8.0 0.00 0.00 0.00 44 1013.2
20260904224035 91 212 10.0 11.0 0.00 0.00 0.00 46 1013.1
20260904223533 91 210 6.0 7.0 0.00 0.00 0.00 46 1013.3
20260904223030 91 201 8.0 10.0 0.00 0.00 0.00 48 1013.5
20260904222525 92 207 8.0 10.0 0.00 0.00 0.00 48 1013.2
20260904222020 91 201 6.0 7.0 0.00 0.00 0.00 48 1013.5
20260904221514 92 216 8.0 9.0 0.00 0.00 0.00 48 1013.5
20260904221009 93 261 6.0 9.0 0.00 0.00 0.00 46 1013.4
20260904220509 93 172 4.0 6.0 0.00 0.00 0.00 46 1013.4
20260904220005 92 181 9.0 13.0 0.00 0.00 0.00 45 1013.5
20260904215459 92 192 5.0 7.0 0.00 0.00 0.00 44 1013.6
20260904214955 92 133 8.0 10.0 0.00 0.00 0.00 45 1013.6
20260904214450 91 203 3.0 5.0 0.00 0.00 0.00 46 1013.6
20260904213945 91 118 7.0 9.0 0.00 0.00 0.00 47 1013.5
20260904213438 91 270 4.0 7.0 0.00 0.00 0.00 46 1013.7
20260904212935 92 181 9.0 11.0 0.00 0.00 0.00 44 1013.8
20260904212434 94 184 6.0 9.0 0.00 0.00 0.00 44 1013.7
20260904211929 92 168 5.0 8.0 0.00 0.00 0.00 45 1013.7
20260904211424 92 177 5.0 6.0 0.00 0.00 0.00 48 1014.1
20260904210920 91 43 6.0 8.0 0.00 0.00 0.00 48 1013.6
20260904210419 91 113 7.0 8.0 0.00 0.00 0.00 48 1014.0
20260904205914 91 200 6.0 8.0 0.00 0.00 0.00 51 1014.0
20260904205410 92 202 9.0 13.0 0.00 0.00 0.00 54 1014.0
20260904204907 92 185 6.0 7.0 0.00 0.00 0.00 53 1014.1
20260904204403 92 181 6.0 8.0 0.00 0.00 0.00 50 1014.2
20260904203859 91 193 8.0 9.0 0.00 0.00 0.00 51 1014.0
20260904203355 92 193 7.0 10.0 0.00 0.00 0.00 49 1014.3
20260904202850 91 130 5.0 8.0 0.00 0.00 0.00 50 1014.3
20260904202346 90 177 8.0 9.0 0.00 0.00 0.00 55 1014.4
20260904201842 91 179 9.0 10.0 0.00 0.00 0.00 52 1014.3
20260904201342 90 181 5.0 7.0 0.00 0.00 0.00 55 1014.3
20260904200837 90 79 9.0 10.0 0.00 0.00 0.00 58 1014.5
20260904200336 91 136 10.0 11.0 0.00 0.00 0.00 54 1014.5
20260904195836 90 179 6.0 11.0 0.00 0.00 0.00 58 1014.8
20260904195334 90 133 6.0 8.0 0.00 0.00 0.00 57 1014.6
20260904194829 91 218 6.0 8.0 0.00 0.00 0.00 58 1014.6
20260904194328 90 302 2.0 2.0 0.00 0.00 0.00 60 1014.7
20260904193823 90 204 6.0 7.0 0.00 0.00 0.00 60 1014.6
20260904193319 91 118 6.0 8.0 0.00 0.00 0.00 58 1014.9
20260904192814 90 71 7.0 11.0 0.00 0.00 0.00 58 1014.9
20260904192309 89 151 7.0 9.0 0.00 0.00 0.00 61 1015.0
20260904191806 89 205 9.0 10.0 0.00 0.00 0.00 61 1015.0
20260904191302 89 110 6.0 8.0 0.00 0.00 0.00 61 1015.0
20260904190758 90 155 7.0 10.0 0.00 0.00 0.00 59 1015.1
20260904190254 89 199 6.0 8.0 0.00 0.00 0.00 59 1015.2
20260904185750 88 216 6.0 9.0 0.00 0.00 0.00 63 1015.3
20260904185245 88 215 7.0 8.0 0.00 0.00 0.00 64 1015.4
20260904184744 88 190 7.0 8.0 0.00 0.00 0.00 64 1015.5
20260904184241 88 222 5.0 5.0 0.00 0.00 0.00 63 1015.8
20260904183736 87 158 6.0 8.0 0.00 0.00 0.00 63 1015.5
20260904183231 87 178 5.0 7.0 0.00 0.00 0.00 65 1015.6
20260904182726 88 187 5.0 7.0 0.00 0.00 0.00 63 1015.4
20260904182221 87 217 6.0 8.0 0.00 0.00 0.00 63 1015.3
20260904181717 87 203 11.0 13.0 0.00 0.00 0.00 64 1015.4
20260904181216 87 175 11.0 13.0 0.00 0.00 0.00 63 1015.7
20260904180711 87 237 6.0 7.0 0.00 0.00 0.00 65 1015.8
20260904180206 87 230 10.0 11.0 0.00 0.00 0.00 65 1015.7
20260904175705 88 174 7.0 9.0 0.00 0.00 0.00 64 1015.8
20260904175204 88 144 5.0 7.0 0.00 0.00 0.00 66 1015.7
20260904174658 87 252 5.0 7.0 0.00 0.00 0.00 63 1015.8
20260904174155 88 276 6.0 9.0 0.00 0.00 0.00 61 1016.1
20260904173651 87 191 7.0 8.0 0.00 0.00 0.00 66 1015.9
20260904173151 87 201 11.0 13.0 0.00 0.00 0.00 62 1015.9
20260904172647 87 197 7.0 10.0 0.00 0.00 0.00 64 1015.9
20260904172146 88 214 7.0 9.0 0.00 0.00 0.00 67 1016.1
20260904171642 88 145 5.0 7.0 0.00 0.00 0.00 67 1016.1
20260904171137 87 228 4.0 5.0 0.00 0.00 0.00 66 1016.3
20260904170633 86 179 6.0 7.0 0.00 0.00 0.00 69 1016.4
20260904170129 87 175 9.0 14.0 0.00 0.00 0.00 67 1016.3
20260904165627 87 202 6.0 8.0 0.00 0.00 0.00 70 1016.3
20260904165121 86 217 4.0 5.0 0.00 0.00 0.00 72 1016.1
20260904164621 86 215 6.0 7.0 0.00 0.00 0.00 72 1016.1
20260904164117 85 267 3.0 3.0 0.00 0.00 0.00 73 1016.2
20260904163612 85 243 7.0 8.0 0.00 0.00 0.00 74 1016.1
20260904163108 85 249 3.0 3.0 0.00 0.00 0.00 74 1016.1
20260904162602 84 201 7.0 9.0 0.00 0.00 0.00 76 1016.2
20260904162057 85 210 8.0 10.0 0.00 0.00 0.00 76 1016.2
20260904161552 84 216 7.0 9.0 0.00 0.00 0.00 77 1016.2
20260904161047 84 191 7.0 9.0 0.00 0.00 0.00 76 1016.3
20260904160542 83 263 4.0 7.0 0.00 0.00 0.00 79 1016.2
20260904160038 83 231 4.0 5.0 0.00 0.00 0.00 79 1016.5
20260904155537 83 210 6.0 7.0 0.00 0.00 0.00 79 1016.2
20260904155032 82 175 8.0 9.0 0.00 0.00 0.00 81 1015.8
20260904154526 82 214 8.0 10.0 0.00 0.00 0.00 82 1016.2
20260904154020 82 214 8.0 10.0 0.00 0.00 0.00 83 1015.8
20260904153520 81 183 9.0 11.0 0.00 0.00 0.00 84 1016.1
20260904153017 81 215 9.0 11.0 0.00 0.00 0.00 85 1015.8
20260904152512 81 221 6.0 9.0 0.00 0.00 0.00 85 1015.9
20260904152007 80 234 9.0 11.0 0.00 0.00 0.00 85 1015.7
20260904151502 80 223 8.0 9.0 0.00 0.00 0.00 87 1015.7
20260904150956 80 210 9.0 10.0 0.00 0.00 0.00 87 1015.6
20260904150451 79 234 8.0 11.0 0.00 0.00 0.00 88 1015.6
20260904145949 79 284 5.0 7.0 0.00 0.00 0.00 89 1015.5
20260904145445 79 218 4.0 6.0 0.00 0.00 0.00 89 1015.8
20260904144941 79 207 7.0 10.0 0.00 0.00 0.00 90 1016.2
20260904144436 79 210 6.0 8.0 0.00 0.00 0.00 90 1015.9
20260904143932 79 214 6.0 7.0 0.00 0.00 0.00 90 1015.7
20260904143428 79 212 4.0 8.0 0.00 0.00 0.00 90 1015.8
20260904142925 79 262 5.0 8.0 0.00 0.00 0.00 90 1015.9
20260904142421 78 203 8.0 9.0 0.00 0.00 0.00 90 1015.8
20260904141921 78 221 5.0 6.0 0.00 0.00 0.00 91 1015.7
20260904141416 78 218 5.0 7.0 0.00 0.00 0.00 92 1015.8
20260904140912 78 283 4.0 5.0 0.00 0.00 0.00 92 1016.1
20260904140412 78 223 4.0 5.0 0.00 0.00 0.00 92 1015.8
20260904135911 78 267 5.0 6.0 0.00 0.00 0.00 92 1015.8
20260904135406 78 198 6.0 7.0 0.00 0.00 0.00 92 1015.8
20260904134903 78 210 6.0 7.0 0.00 0.00 0.00 92 1015.9
20260904134402 78 227 4.0 6.0 0.00 0.00 0.00 92 1015.9
20260904133901 78 221 3.0 5.0 0.00 0.00 0.00 92 1015.9
20260904133357 78 236 3.0 3.0 0.00 0.00 0.00 92 1015.6
20260904132852 78 229 4.0 5.0 0.00 0.00 0.00 91 1016.1
20260904132348 78 256 3.0 5.0 0.00 0.00 0.00 91 1015.9
20260904131847 78 266 2.0 2.0 0.00 0.00 0.00 91 1015.7
20260904131343 78 243 3.0 3.0 0.00 0.00 0.00 90 1015.8
20260904130838 78 244 2.0 3.0 0.00 0.00 0.00 89 1015.9
20260904130337 78 282 1.0 2.0 0.00 0.00 0.00 89 1015.8
20260904125832 78 272 2.0 2.0 0.00 0.00 0.00 89 1015.7
20260904125329 78 205 8.0 9.0 0.00 0.00 0.00 89 1015.8
20260904124827 78 210 3.0 3.0 0.00 0.00 0.00 89 1015.8
20260904124324 78 206 5.0 6.0 0.00 0.00 0.00 89 1015.8
20260904123819 78 201 3.0 3.0 0.00 0.00 0.00 89 1015.6
20260904123314 78 191 3.0 5.0 0.00 0.00 0.00 89 1015.6
20260904122808 78 223 3.0 3.0 0.00 0.00 0.00 89 1015.5
20260904122306 78 206 3.0 3.0 0.00 0.00 0.00 90 1015.3
20260904121758 78 191 6.0 7.0 0.00 0.00 0.00 90 1015.2
20260904121254 78 247 5.0 6.0 0.00 0.00 0.00 90 1015.0
20260904120751 78 191 4.0 7.0 0.00 0.00 0.00 90 1015.3
20260904120246 78 194 7.0 9.0 0.00 0.00 0.00 90 1015.1
20260904115741 78 176 6.0 7.0 0.00 0.00 0.00 90 1014.8
20260904115236 78 212 7.0 8.0 0.00 0.00 0.00 91 1014.8
20260904114731 78 181 6.0 8.0 0.00 0.00 0.00 91 1014.7
20260904114230 78 134 7.0 8.0 0.00 0.00 0.00 90 1014.6
20260904113726 78 170 5.0 7.0 0.00 0.00 0.00 90 1014.5
20260904113224 78 215 7.0 9.0 0.00 0.00 0.00 90 1014.8
20260904112720 78 202 6.0 8.0 0.00 0.00 0.00 90 1014.6
20260904112215 78 208 5.0 6.0 0.00 0.00 0.00 90 1014.5
20260904111711 78 192 5.0 6.0 0.00 0.00 0.00 90 1014.2
20260904111206 78 182 9.0 10.0 0.00 0.00 0.00 90 1014.5
20260904110702 78 206 7.0 9.0 0.00 0.00 0.00 90 1014.3
20260904110201 78 183 6.0 8.0 0.00 0.00 0.00 90 1014.3
20260904105656 78 210 8.0 9.0 0.00 0.00 0.00 90 1014.3
20260904105151 78 200 7.0 8.0 0.00 0.00 0.00 90 1014.5
20260904104646 78 182 6.0 8.0 0.00 0.00 0.00 90 1014.4
20260904104142 78 258 7.0 8.0 0.00 0.00 0.00 90 1014.2
20260904103638 78 228 5.0 6.0 0.00 0.00 0.00 90 1014.3
20260904103133 78 209 7.0 8.0 0.00 0.00 0.00 89 1014.1
20260904102630 78 195 9.0 13.0 0.00 0.00 0.00 89 1014.3
20260904102124 78 219 6.0 7.0 0.00 0.00 0.00 89 1014.0
20260904101621 78 181 5.0 7.0 0.00 0.00 0.00 89 1014.1
20260904101116 78 207 5.0 6.0 0.00 0.00 0.00 89 1014.1
20260904100612 78 238 7.0 8.0 0.00 0.00 0.00 89 1014.0
20260904100107 78 207 7.0 9.0 0.00 0.00 0.00 89 1013.8
20260904095602 78 188 7.0 9.0 0.00 0.00 0.00 89 1014.0
20260904095056 78 209 3.0 5.0 0.00 0.00 0.00 89 1013.9
20260904094551 78 222 6.0 7.0 0.00 0.00 0.00 89 1014.1
20260904094046 78 200 6.0 8.0 0.00 0.00 0.00 88 1014.0
20260904093543 78 223 9.0 11.0 0.00 0.00 0.00 89 1014.0
20260904093043 78 229 5.0 8.0 0.00 0.00 0.00 88 1013.8
20260904092539 78 233 6.0 7.0 0.00 0.00 0.00 88 1013.8
20260904092035 79 250 7.0 9.0 0.00 0.00 0.00 88 1013.7
20260904091531 79 205 7.0 9.0 0.00 0.00 0.00 88 1013.9
20260904091030 79 215 8.0 11.0 0.00 0.00 0.00 88 1014.0
20260904090526 79 223 7.0 9.0 0.00 0.00 0.00 88 1014.0
20260904090022 79 207 11.0 15.0 0.00 0.00 0.00 88 1013.8
20260904085517 79 224 11.0 13.0 0.00 0.00 0.00 88 1013.8
20260904085016 79 206 8.0 8.0 0.00 0.00 0.00 87 1013.9
20260904084512 79 221 7.0 8.0 0.00 0.00 0.00 87 1013.8
20260904084008 79 237 7.0 7.0 0.00 0.00 0.00 87 1013.8
20260904083504 79 198 10.0 13.0 0.00 0.00 0.00 87 1014.0
20260904083000 79 216 7.0 9.0 0.00 0.00 0.00 87 1014.0
20260904082454 79 208 10.0 11.0 0.00 0.00 0.00 86 1014.1
20260904081949 79 216 10.0 11.0 0.00 0.00 0.00 87 1014.1
20260904081445 79 200 8.0 9.0 0.00 0.00 0.00 87 1014.0
20260904080940 79 191 10.0 13.0 0.00 0.00 0.00 86 1014.0
20260904080436 79 156 12.0 15.0 0.00 0.00 0.00 86 1014.0
20260904075931 79 216 10.0 11.0 0.00 0.00 0.00 86 1014.1
20260904075427 79 269 6.0 7.0 0.00 0.00 0.00 86 1013.9
20260904074926 79 202 11.0 15.0 0.00 0.00 0.00 86 1013.8
20260904074421 79 195 9.0 10.0 0.00 0.00 0.00 86 1014.1
20260904073916 79 202 11.0 14.0 0.00 0.00 0.00 86 1014.3
20260904073412 79 184 8.0 9.0 0.00 0.00 0.00 86 1014.0
20260904072908 79 195 11.0 11.0 0.00 0.00 0.00 86 1013.9
20260904072403 79 207 10.0 11.0 0.00 0.00 0.00 86 1013.8
20260904071858 79 208 10.0 11.0 0.00 0.00 0.00 86 1014.0
20260904071353 79 195 10.0 11.0 0.00 0.00 0.00 86 1014.3
20260904070848 79 244 9.0 10.0 0.00 0.00 0.00 86 1014.1
20260904070346 79 179 9.0 10.0 0.00 0.00 0.00 86 1014.2
20260904065842 79 200 10.0 13.0 0.00 0.00 0.00 85 1014.1
20260904065338 79 210 9.0 13.0 0.00 0.00 0.00 85 1014.3
20260904064832 79 214 9.0 11.0 0.00 0.00 0.00 85 1014.4
20260904064328 79 165 11.0 13.0 0.00 0.00 0.00 85 1014.5
20260904063824 79 189 8.0 14.0 0.00 0.00 0.00 85 1014.3
20260904063320 79 193 11.0 13.0 0.00 0.00 0.00 85 1014.3
20260904062815 79 222 11.0 14.0 0.00 0.00 0.00 85 1014.4
20260904062311 79 232 12.0 14.0 0.00 0.00 0.00 84 1014.2
20260904061807 79 191 11.0 13.0 0.00 0.00 0.00 84 1014.4
20260904061303 79 210 10.0 15.0 0.00 0.00 0.00 84 1014.2
20260904060759 79 197 12.0 14.0 0.00 0.00 0.00 84 1014.3
20260904060255 80 196 12.0 15.0 0.00 0.00 0.00 84 1014.4
20260904055750 80 202 11.0 13.0 0.00 0.00 0.00 83 1014.2
20260904055250 80 217 8.0 9.0 0.00 0.00 0.00 83 1014.3
20260904054745 80 210 9.0 13.0 0.00 0.00 0.00 83 1014.4
20260904054241 80 215 10.0 11.0 0.00 0.00 0.00 83 1014.3
20260904053736 80 197 7.0 9.0 0.00 0.00 0.00 83 1014.3
20260904053231 80 198 8.0 11.0 0.00 0.00 0.00 83 1014.4
20260904052728 80 201 7.0 9.0 0.00 0.00 0.00 83 1014.1
20260904052223 80 222 9.0 11.0 0.00 0.00 0.00 82 1014.1